Location: Ar Ranvel
(48.3000°N, 4.8833°W)
Time: 20:20:04
(UTC+00:00)

COSMOS 2251 DEB - Visible Passes

Search period start: 16 January 2022 00:00
Search period end: 26 January 2022 00:00
Orbit: 703 x 743 km, 74.0° (Epoch: 15 January)

Date Brightness Start Highest point End Pass type
(mag) Time Alt. Az. Time Alt. Az. Time Alt. Az.
17 Jan ? 19:16:00 10° N 19:16:09 10° N 19:16:09 10° N visible
18 Jan ? 20:05:34 10° NNW 20:06:09 13° N 20:06:09 13° N visible
19 Jan ? 19:15:30 10° N 19:16:53 16° NNE 19:16:53 16° NNE visible
19 Jan ? 20:56:00 10° NNW 20:56:13 11° NNW 20:56:13 11° NNW visible
20 Jan ? 18:26:04 10° NNE 18:27:40 12° NE 18:27:40 12° NE visible
20 Jan ? 20:05:27 10° NNW 20:07:00 20° NNW 20:07:00 20° NNW visible
21 Jan ? 19:15:11 10° N 19:17:53 25° NNE 19:17:53 25° NNE visible
21 Jan ? 20:56:10 10° NW 20:57:14 16° NW 20:57:14 16° NW visible
22 Jan ? 18:25:17 10° N 18:28:43 18° NE 18:28:51 18° NE visible
22 Jan ? 20:05:24 10° NNW 20:08:13 33° NNW 20:08:13 33° NNW visible
23 Jan ? 19:14:57 10° NNW 19:19:21 44° NE 19:19:21 44° NE visible
23 Jan ? 20:56:29 10° NW 20:58:43 21° WNW 20:58:43 21° WNW visible
24 Jan ? 18:24:49 10° N 18:29:00 25° NE 18:30:40 21° E visible
24 Jan ? 20:05:27 10° NNW 20:10:04 55° W 20:10:04 55° W visible
25 Jan ? 19:14:49 10° NNW 19:19:57 69° ENE 19:21:43 40° SE visible
25 Jan ? 20:57:06 10° NW 21:00:28 18° W 21:01:09 17° WSW visible
